RH
29 73 78 72 74 61 44 31 14 23 33 37 32 33 36 41 40 35 33 26 29 44 46 50 48 46 42 31 7 5 5 5 8 12 14 13 8 6 6 7 8 8 10 12 12 12 11 10 9
10 32 77 79 87 78 53 37 27 15 29 34 37 34 42 43 40 38 23 26 32 45 38 55 43 37 24 9 5 4 5 7 11 14 14 8 6 6 7 9 10 12 12 12 11 10 10 9 9
9 12 36 91 84 87 68 43 35 20 16 24 28 44 47 42 38 41 28 17 22 29 32 44 44 26 16 6 5 4 6 10 13 16 12 6 6 7 9 11 12 13 13 12 11 10 9 9 8
11 12 16 63 82 73 72 54 44 34 22 19 22 46 50 41 39 40 32 19 20 12 17 20 24 21 10 6 5 5 8 12 14 16 11 6 6 8 10 12 13 13 12 12 11 10 9 9 9
12 12 14 18 48 78 75 64 49 34 25 23 31 31 48 44 43 38 35 21 17 19 8 14 14 13 8 6 4 6 9 12 14 16 9 6 7 10 11 13 14 13 12 12 11 10 9 10 10
14 12 14 13 15 33 66 65 62 50 42 39 38 34 45 44 41 37 33 24 17 20 9 7 9 8 6 6 5 6 9 13 15 15 9 6 8 10 11 13 13 12 11 10 10 9 10 10 10
20 14 12 10 10 14 24 56 65 60 51 45 48 50 48 47 43 39 32 25 18 14 9 7 7 6 5 6 5 6 10 13 16 16 9 7 9 10 11 12 11 10 9 9 9 9 9 8 7
24 23 17 13 14 13 13 29 52 66 59 45 47 73 60 54 46 42 31 24 18 12 9 7 6 5 5 6 5 6 10 14 16 16 10 8 9 10 12 12 10 9 9 9 8 7 7 7 7
34 33 24 19 18 12 9 11 35 50 67 56 46 64 71 65 56 44 28 22 17 8 9 8 6 5 5 6 5 6 10 14 17 16 10 8 9 10 11 9 9 9 9 8 8 8 8 9 9
42 36 27 20 19 16 13 12 15 46 56 68 57 52 64 68 53 40 27 22 18 7 8 8 7 5 5 6 5 7 12 16 18 16 11 9 10 9 9 9 10 10 10 10 10 11 12 13 14
49 36 27 28 26 24 19 18 19 50 82 75 65 50 53 61 52 35 27 25 19 10 10 8 6 5 6 6 6 8 13 17 19 17 12 10 9 9 10 10 11 11 11 12 13 14 15 16 17
50 41 42 44 40 36 25 27 28 22 34 74 68 56 53 57 51 39 28 25 21 13 12 10 7 5 6 6 7 10 15 19 20 18 13 10 10 10 11 11 12 12 12 13 13 15 16 18 19
71 50 58 64 67 54 48 53 41 40 67 76 68 68 62 56 51 42 38 32 26 16 13 12 8 6 7 6 8 11 16 20 20 19 14 11 11 11 12 12 13 13 13 14 15 17 19 20 21
74 71 70 77 77 75 64 51 36 21 48 66 74 67 63 58 45 44 37 35 27 22 17 15 10 6 7 7 9 12 17 21 22 20 15 12 11 12 13 14 15 15 15 16 17 18 20 21 21
89 93 86 79 73 79 64 67 74 33 73 77 71 72 70 58 51 44 36 26 28 25 25 19 13 7 8 8 10 14 19 22 23 20 16 13 12 13 14 16 16 17 17 18 18 19 19 19 20
97 98 96 70 79 77 82 75 55 48 89 75 82 78 69 90 65 55 52 39 40 37 29 25 14 9 9 8 11 15 20 24 24 22 18 15 14 14 15 16 17 18 19 20 20 21 21 20 21
99 99 99 80 71 75 83 93 67 58 98 100 89 76 78 95 86 70 57 49 53 43 37 29 14 9 9 9 12 15 22 24 25 23 20 18 16 16 16 16 17 18 20 22 22 23 23 23 23
98 99 100 96 67 75 75 70 64 89 65 96 94 81 74 74 92 96 67 57 64 60 43 32 21 11 10 10 13 15 21 24 25 24 22 20 19 18 17 18 18 19 23 24 24 24 24 25 25
94 100 91 84 81 91 70 64 50 75 97 77 96 90 84 70 78 98 74 62 55 66 49 30 21 12 11 11 14 15 20 24 26 25 24 22 21 20 20 20 19 21 25 26 26 25 24 25 28
88 86 97 84 88 97 94 80 70 51 74 78 79 85 92 85 88 80 99 79 55 60 46 35 23 14 13 12 16 18 21 25 27 27 26 25 24 23 22 22 22 24 27 28 27 24 24 25 27
98 100 98 96 99 99 100 90 73 61 67 74 82 87 88 94 85 69 62 58 54 53 54 38 24 14 14 13 18 20 23 26 26 26 27 27 26 26 25 25 25 27 29 29 26 25 24 25 29
100 93 98 99 100 97 89 90 74 58 58 75 78 84 88 83 96 79 73 47 45 46 51 46 31 18 14 14 19 21 24 25 26 28 29 28 29 28 28 27 28 29 31 30 28 25 25 29 33
97 98 100 99 100 100 99 99 74 66 65 54 53 59 80 80 82 84 67 56 38 37 38 39 35 26 16 15 21 24 26 27 31 31 30 31 31 31 31 30 31 32 34 33 30 27 27 34 36
72 90 94 100 100 97 88 96 67 67 41 40 46 51 60 78 86 79 81 66 50 44 38 37 34 29 20 17 22 27 28 28 30 31 31 32 33 34 34 34 34 35 37 36 32 29 34 38 39
96 87 94 98 96 83 65 92 80 32 44 37 33 38 54 67 70 81 85 78 75 61 41 38 38 31 22 19 23 29 30 30 30 33 34 34 36 38 38 38 38 39 39 38 33 33 40 41 43
74 94 87 89 94 80 62 86 70 32 35 48 39 35 38 50 62 68 77 77 76 64 45 33 36 34 24 18 25 32 34 32 32 32 38 40 43 43 41 40 42 42 41 38 34 40 44 46 47
87 89 74 88 92 96 87 75 62 48 40 36 39 43 37 35 55 63 67 62 69 58 39 40 36 39 28 25 26 36 36 35 34 33 36 43 44 43 44 44 45 45 42 38 39 46 49 50 48
89 82 96 99 93 80 82 73 57 42 39 37 36 36 36 38 42 58 64 60 65 48 50 41 43 37 36 29 29 37 38 38 38 36 38 38 41 44 46 46 47 46 43 40 48 52 53 52 49
98 98 88 83 81 86 94 55 40 37 37 37 37 35 34 31 38 50 68 84 63 61 86 51 45 46 43 36 32 38 39 40 40 40 39 41 44 47 48 49 49 48 42 48 55 56 56 53 49
61 63 85 96 97 90 75 63 47 44 50 46 43 42 42 44 41 36 59 65 68 76 60 57 56 46 42 44 36 41 42 43 44 43 42 43 45 47 50 52 51 46 49 57 60 59 56 52 47
Wind_Speed
36 32 26 24 17 16 21 24 23 11 14 12 19 23 21 22 13 7 6 6 14 16 18 17 16 14 12 9 6 4 3 2 1 1 3 6 7 7 5 4 3 3 5 5 6 6 7 7 7
34 34 31 27 26 28 26 28 25 20 16 10 15 22 23 25 19 14 10 4 10 14 17 17 15 13 11 8 5 4 4 3 1 2 4 6 7 5 4 3 4 5 5 5 6 6 7 7 7
29 33 32 31 36 42 30 28 24 21 25 21 15 23 27 25 20 17 13 8 4 12 18 20 17 14 11 9 6 5 5 3 1 2 5 5 5 3 3 4 5 5 5 6 6 6 7 8 8
25 29 33 35 41 34 37 32 29 23 23 20 21 25 33 25 20 18 15 10 7 6 17 21 19 15 12 9 8 7 6 4 2 2 4 5 3 3 4 4 5 5 5 5 6 7 7 7 9
22 29 34 40 48 43 35 30 36 20 20 19 19 25 33 27 25 21 18 15 11 10 13 20 20 17 14 11 10 9 7 5 2 2 3 3 2 3 3 4 4 4 5 6 6 7 8 8 8
22 28 31 45 50 45 40 39 36 37 33 27 23 28 33 31 28 22 21 19 16 14 13 18 20 18 15 13 12 10 9 6 3 2 3 2 2 3 3 4 4 5 6 7 7 7 7 7 8
23 27 38 44 47 46 43 41 45 39 33 29 25 30 34 33 29 24 23 22 19 16 16 17 19 19 16 14 13 12 10 7 4 2 2 1 2 2 3 4 4 5 5 6 6 7 8 9 9
23 28 38 42 42 43 41 41 45 45 37 27 28 25 35 32 31 28 26 25 22 19 18 19 21 19 17 15 14 14 11 8 5 2 1 1 2 3 4 5 5 5 5 5 7 7 8 9 9
21 30 39 41 36 39 39 41 42 46 46 36 31 32 28 30 33 31 26 27 25 22 21 21 22 20 18 17 16 14 12 9 5 3 2 2 2 3 5 5 5 5 6 6 7 7 8 8 9
24 34 37 37 34 32 33 36 42 41 43 46 37 34 33 33 31 28 26 26 25 23 22 22 23 20 18 17 16 15 12 10 7 4 3 3 3 4 5 6 6 6 6 7 7 7 8 9 9
26 35 29 32 32 30 32 34 36 42 34 45 41 37 36 36 35 28 27 26 24 22 22 21 21 20 18 17 16 15 13 11 8 6 4 4 4 6 6 6 6 5 5 6 6 7 8 9 9
30 27 27 28 26 30 32 33 35 39 44 42 53 41 40 38 32 30 26 26 24 24 23 23 22 21 19 18 18 17 14 12 9 7 5 5 7 7 7 6 5 4 4 5 6 7 7 8 9
28 24 25 23 23 27 30 32 32 39 37 40 51 41 38 36 29 26 26 27 24 26 25 22 22 20 19 19 19 18 15 12 10 8 7 8 9 8 7 6 4 2 2 3 5 5 7 7 9
27 24 24 25 24 26 27 29 34 38 37 40 44 49 36 34 30 25 27 28 27 26 23 22 22 21 19 20 21 19 17 14 12 9 8 10 10 9 8 5 3 1 1 2 3 4 5 6 8
27 31 29 29 25 27 24 38 44 33 33 35 42 55 42 34 30 26 23 24 27 25 24 22 23 21 20 22 22 20 18 16 13 11 11 11 11 10 9 6 4 2 1 2 3 4 4 7 9
24 27 31 34 29 28 28 43 38 33 40 39 44 37 61 34 32 28 27 25 26 26 24 25 24 22 22 24 23 22 20 17 15 14 13 13 12 11 9 7 6 4 3 4 5 6 7 9 11
28 30 31 33 32 31 35 38 35 37 38 43 41 45 52 41 35 34 31 29 27 26 26 26 25 23 23 25 26 24 22 20 18 17 16 15 14 13 11 9 7 6 5 6 6 7 8 11 12
31 22 26 36 32 34 39 45 39 31 40 45 46 41 54 64 41 39 34 31 29 28 27 27 26 26 26 27 28 27 24 22 20 19 18 16 15 14 12 10 9 7 7 8 8 8 10 11 13
30 29 32 32 29 31 34 43 45 32 35 38 48 47 53 50 39 40 33 32 33 32 31 30 29 28 28 29 28 26 23 22 21 20 19 18 16 15 14 12 10 9 10 10 10 11 12 12 13
34 39 35 38 37 31 35 38 39 41 42 36 45 54 41 54 57 34 36 36 36 35 33 32 32 29 28 28 26 25 24 22 22 21 20 19 18 17 15 13 12 12 13 12 12 13 14 14 15
36 29 29 33 18 31 30 38 41 39 39 42 44 46 59 48 61 49 35 34 34 37 36 34 32 31 30 29 29 30 29 27 25 23 22 20 19 18 17 15 14 15 15 14 14 15 16 17 19
35 37 35 32 22 15 18 13 34 40 43 42 44 48 53 60 58 67 46 34 34 34 36 35 34 33 31 30 31 30 27 24 22 22 21 21 21 20 18 17 17 17 16 16 16 17 18 19 22
35 27 30 29 30 30 26 17 36 38 36 45 48 48 51 56 63 65 51 40 29 28 35 37 35 35 32 32 31 30 28 26 24 24 24 24 23 21 20 19 19 19 18 18 18 19 20 22 25
31 25 21 24 29 19 28 25 38 39 50 51 45 47 48 50 63 60 66 53 33 31 33 38 37 36 34 33 31 31 30 28 28 27 25 24 23 22 22 21 21 20 19 19 20 20 22 24 28
37 26 7 7 8 10 18 25 46 37 41 47 46 43 44 52 54 65 62 53 57 44 37 38 39 38 37 32 33 32 31 29 28 26 24 24 23 23 23 23 22 21 21 21 21 22 24 26 29
33 33 9 6 5 4 23 15 40 42 51 21 32 35 37 40 52 54 70 64 54 53 40 39 39 37 34 33 35 32 32 31 30 27 25 24 25 26 26 24 23 22 22 22 22 23 25 28 31
32 40 40 13 10 3 8 24 38 39 37 31 44 37 32 42 42 50 53 68 61 53 45 39 39 38 38 37 36 35 34 32 30 28 28 29 29 28 26 24 23 23 23 23 23 24 27 30 34
41 31 21 26 7 10 7 17 22 13 30 39 40 36 30 33 41 46 54 65 65 54 42 38 37 38 37 37 36 35 34 32 30 30 29 29 28 27 26 25 24 24 24 24 24 26 28 32 36
34 37 24 21 22 4 1 6 11 14 18 25 30 34 37 37 34 39 47 57 69 56 50 42 38 36 37 39 37 36 35 33 32 30 29 29 28 27 26 25 24 24 24 24 25 28 31 34 37
27 39 43 15 7 28 12 18 8 10 12 15 9 19 25 36 36 32 38 51 67 60 46 44 40 33 29 34 37 37 35 34 32 31 30 30 29 26 25 25 25 25 24 25 27 30 34 36 38
Wind_Direction
239 242 245 248 246 239 233 235 241 245 246 259 241 239 243 229 245 279 297 267 216 205 203 208 196 193 203 215 213 213 210 194 175 331 325 323 326 327 329 336 358 25 39 47 50 44 37 31 21
238 237 239 244 241 241 237 234 242 240 249 267 247 231 221 227 243 265 276 304 217 211 209 205 201 202 202 206 207 193 183 185 185 329 332 338 342 348 3 40 63 64 58 52 46 48 47 49 44
236 236 234 233 242 239 241 239 241 243 245 251 260 214 212 227 245 253 280 281 249 224 211 205 211 203 200 202 197 187 182 187 211 338 341 347 356 17 48 55 62 61 57 52 48 49 52 50 47
237 235 233 234 237 241 242 240 246 248 247 251 250 230 222 230 239 253 271 267 239 231 219 212 211 204 201 201 194 193 190 195 217 337 344 349 19 35 65 67 67 64 59 62 63 59 56 54 47
236 235 237 238 240 240 241 241 241 235 234 243 260 243 227 227 234 250 262 263 251 233 227 215 211 207 204 203 199 195 196 200 218 319 340 357 41 68 68 72 76 76 75 71 67 66 59 49 45
239 235 236 240 242 241 238 242 244 243 242 255 260 232 231 227 232 249 259 255 249 230 223 215 210 210 205 202 202 198 199 202 216 287 330 18 63 84 85 82 78 76 80 80 72 64 57 44 36
240 241 243 247 249 246 240 236 244 241 239 243 248 239 231 226 232 243 252 250 244 229 219 213 210 208 208 204 201 201 201 204 217 259 327 18 90 101 99 92 91 88 82 78 71 55 44 36 31
243 242 248 248 248 251 247 240 241 242 238 236 234 247 238 232 237 242 248 243 239 225 217 211 207 208 211 209 205 201 203 206 217 231 273 150 131 121 112 105 108 102 88 72 61 55 49 48 45
243 241 247 250 252 251 255 247 246 246 241 232 234 234 232 235 241 243 246 245 238 221 214 210 209 211 212 210 206 203 201 206 211 215 218 186 159 142 131 124 118 102 90 77 67 60 56 51 46
238 243 252 258 258 257 257 251 247 252 245 237 236 231 230 233 240 242 247 248 238 224 212 206 206 209 212 209 204 200 198 205 206 208 208 197 169 153 140 129 119 105 93 81 72 65 60 51 44
253 254 267 267 267 262 252 248 243 239 241 236 233 232 227 228 237 240 244 239 234 220 206 205 206 209 209 207 203 199 197 203 206 204 202 196 172 159 151 140 125 110 92 81 70 59 51 45 38
256 264 270 271 262 260 255 250 244 242 240 241 231 231 223 225 230 246 242 234 224 209 203 206 206 208 206 203 199 198 198 201 205 204 198 189 177 169 162 152 131 115 90 72 55 45 41 37 34
259 265 264 266 260 257 248 246 244 242 239 241 232 237 223 226 226 232 232 229 213 209 209 206 206 207 204 204 200 199 198 201 204 203 198 191 183 180 173 166 148 125 77 60 51 41 38 36 32
265 268 264 259 255 255 245 247 239 233 234 239 236 229 226 222 219 222 225 221 214 211 210 209 208 205 206 202 201 198 199 199 202 203 199 198 190 189 188 183 179 171 87 46 28 22 23 23 21
260 263 265 260 250 250 246 238 235 229 229 235 234 227 227 207 211 213 222 220 219 215 212 211 209 207 207 203 201 198 199 198 200 204 202 205 198 197 200 198 201 214 242 325 329 332 337 352 354
260 262 261 257 245 247 236 253 239 233 230 235 229 216 223 211 208 209 218 219 218 216 214 210 210 208 209 206 202 199 199 198 201 204 203 207 204 207 211 210 220 235 263 288 301 322 333 335 338
256 248 251 261 252 248 243 254 252 234 231 232 231 221 208 212 210 211 213 215 217 218 217 213 209 211 208 208 203 200 198 200 202 204 206 207 206 211 218 223 234 250 270 282 291 307 317 320 324
230 239 247 248 263 252 249 249 251 246 237 232 222 215 215 216 211 215 212 211 217 217 217 216 213 212 207 207 208 203 200 203 203 205 207 211 211 217 223 230 243 258 272 277 286 296 302 308 314
238 250 254 262 266 257 255 255 249 248 240 234 225 220 221 211 217 214 215 212 214 215 216 215 216 213 210 208 210 210 208 208 209 211 212 214 217 222 228 235 248 261 270 276 286 295 299 305 315
245 247 254 261 259 252 261 258 258 248 246 240 229 223 223 224 219 217 216 221 218 215 216 216 218 217 212 208 209 211 213 210 210 215 219 219 221 228 234 242 253 264 271 280 290 296 298 300 304
234 239 251 248 252 240 258 257 252 245 243 239 234 228 232 220 212 214 221 222 223 217 216 219 219 218 213 209 207 210 209 207 212 218 222 224 227 230 237 245 256 264 271 281 290 297 301 303 308
241 244 243 256 263 261 260 264 254 251 244 239 235 234 229 226 217 222 224 225 227 224 221 220 222 220 215 210 210 215 219 219 218 220 226 229 232 235 240 248 256 264 273 283 291 297 303 308 315
241 249 250 256 253 257 248 259 264 250 244 240 233 234 230 226 220 213 208 233 226 229 231 227 223 221 216 213 212 215 216 213 217 223 223 227 232 237 243 250 258 266 276 286 294 300 306 312 317
251 252 258 249 252 246 246 237 262 248 246 242 238 235 234 229 219 221 219 219 225 227 230 234 227 223 218 214 212 213 218 218 218 220 223 229 234 239 245 251 259 268 278 287 295 302 309 315 319
241 234 232 234 225 250 240 228 238 255 253 251 243 239 237 232 224 215 210 209 218 225 231 229 231 224 220 213 214 211 217 220 222 225 229 234 239 243 247 252 260 270 279 288 297 304 311 316 320
227 214 211 209 203 262 236 231 242 257 251 264 243 237 238 238 231 226 219 224 217 217 221 225 231 228 222 219 216 211 216 220 223 224 226 231 235 239 245 253 261 271 281 290 298 304 311 316 319
220 221 221 271 278 278 234 253 256 252 251 248 243 246 241 229 227 226 224 225 214 220 217 216 224 225 221 218 217 213 217 220 223 225 226 228 233 240 247 255 264 273 282 290 297 305 312 316 318
219 219 204 222 237 246 240 247 237 272 258 253 253 251 251 240 222 227 221 211 220 209 213 213 218 226 224 217 216 216 218 220 223 226 229 234 239 243 249 256 265 274 283 290 299 307 312 315 316
214 219 214 215 228 229 289 255 282 269 266 260 258 254 255 248 234 230 222 223 216 211 226 215 215 214 217 215 213 215 218 220 223 227 231 234 237 242 249 257 266 275 283 292 302 308 312 313 315
245 223 214 223 191 227 238 245 257 353 79 24 1 277 258 245 239 230 225 210 205 218 220 214 222 223 226 218 211 213 216 220 224 228 232 235 238 243 250 259 269 277 286 296 303 308 310 313 313